User: anonymous   Login
Location: Kernascl�den
(48.0062°N, 3.3198°W)
Time: 02:15:57
(UTC+00:00)
Language:

Cosmos 1674 - Orbit

View from above orbital plane
View from above orbital plane
View from above satellite
View from above satellite

Ground track
Ground track

The orbit data is extracted from the following two-line orbital elements,

1 15944U 85069A   21102.55291837  .00000740  00000-0  32470-4 0  9998
2 15944  82.5040 285.0664 0015496 313.8618  46.1335 15.20278644949610
Epoch (UTC): 12 April 2021 13:16:12
Eccentricity: 0.0015496
inclination: 82.5040°
perigee height: 494 km
apogee height: 515 km
right ascension of ascending node: 285.0664°
argument of perigee: 313.8618°
revolutions per day: 15.20278644
mean anomaly at epoch: 46.1335°
orbit number at epoch: 94961

The dashed part of the orbit path shows where the satellite is in the earth's shadow,  

DLR